CAPE
0 0 0 1 2 1 0 0 0 0 0 0 0 0 0 0 0 0 0 0 0 0 0 0 0 0 0 0 0 0 0 0 0 0 0 6 3 15 17 20 33 37 52 36 47 48 26 98 105 313 482 524 510 457
0 0 0 0 0 0 0 0 0 0 0 0 0 0 0 0 0 0 0 0 0 0 0 0 0 0 0 0 0 0 0 0 0 0 0 0 0 0 0 0 1 8 60 42 80 55 115 56 30 44 68 306 787 431
0 0 0 0 0 0 0 0 0 0 0 0 0 0 0 0 0 0 0 0 0 0 0 0 0 0 0 0 0 0 0 1 1 2 0 0 0 0 0 0 0 0 0 64 12 57 78 14 123 19 216 81 97 385
0 0 0 0 0 0 0 0 0 0 0 0 0 0 0 0 0 0 0 0 0 0 0 0 0 0 0 0 0 0 0 0 0 5 5 4 7 5 0 1 0 5 2 0 0 0 5 25 93 129 36 0 14 181
0 0 0 0 0 0 0 0 0 0 0 0 0 0 0 0 0 0 0 0 0 0 0 0 0 0 0 0 0 0 0 0 5 6 1 3 10 10 10 3 0 0 13 23 42 37 13 13 10 18 23 0 0 0
0 0 0 0 0 0 0 0 0 0 0 0 0 0 0 0 0 0 0 0 1 1 0 0 0 0 0 0 0 0 2 7 4 8 3 5 2 10 3 6 0 3 7 8 0 0 0 0 0 5 33 29 0 0
0 0 0 0 0 0 0 0 0 0 0 0 0 0 0 0 0 0 0 0 0 0 1 0 0 0 0 0 4 17 28 15 5 6 2 2 10 10 7 1 0 11 3 0 0 0 0 0 0 7 0 28 13 0
0 0 0 0 0 0 0 0 0 0 0 0 0 0 0 0 0 0 0 0 0 0 3 0 0 2 3 17 10 19 12 11 12 4 1 5 10 3 2 0 2 0 0 0 0 0 0 0 2 0 0 6 7 5
0 0 0 0 0 0 0 0 0 0 0 0 0 0 0 0 1 2 0 0 1 5 7 2 0 13 17 13 4 5 9 11 9 8 11 0 1 4 3 3 0 0 2 4 0 0 0 3 8 4 2 0 0 20
0 0 0 0 0 0 0 0 0 0 0 0 0 0 0 0 0 0 0 6 6 9 7 0 0 2 1 8 6 6 23 24 21 9 16 0 1 1 2 0 1 0 1 2 4 3 2 2 1 1 2 0 0 30
0 0 1 0 0 0 0 0 0 0 0 0 0 2 0 0 0 8 9 9 18 8 0 0 5 1 5 1 6 10 21 18 13 24 31 19 5 8 1 6 0 0 2 1 2 1 2 1 2 1 2 4 0 5
0 0 1 0 1 0 0 0 0 0 0 0 0 0 0 0 1 3 2 3 1 2 8 13 15 19 14 16 26 27 20 1 1 10 1 1 0 12 3 0 0 0 2 2 3 2 3 9 13 1 1 1 0 16
0 1 0 1 1 0 0 0 0 0 0 0 0 1 2 1 0 0 0 0 3 17 7 20 15 12 22 29 28 34 8 6 29 21 4 1 3 3 0 0 0 0 1 2 0 2 221 375 143 144 3 1 0 40
0 1 1 1 1 0 0 0 0 0 0 0 1 0 0 0 0 0 1 23 20 5 0 9 13 10 16 7 20 12 15 12 5 8 0 0 0 0 0 0 0 1 2 4 8 210 200 0 9 16 11 4 25 52
1 1 1 0 0 0 0 0 0 0 0 0 1 0 0 0 0 2 2 0 0 4 18 10 4 11 12 19 26 23 12 6 13 14 8 0 0 0 15 12 7 6 12 12 134 317 161 15 3 4 9 14 63 200
1 1 1 0 0 0 0 0 0 0 2 0 0 0 0 0 0 6 10 12 14 18 14 12 7 8 15 33 23 31 16 24 10 0 0 0 11 30 38 37 31 35 20 39 191 383 366 43 28 16 20 22 124 298
1 1 0 0 1 0 0 0 0 1 1 0 0 0 0 0 0 0 0 0 0 1 5 2 8 24 11 12 34 22 12 7 5 0 0 19 27 37 40 48 48 22 21 25 40 124 192 107 178 85 125 283 352 389
0 0 0 0 0 2 0 0 0 0 4 0 0 0 0 0 0 0 0 0 0 1 11 8 17 8 11 9 7 3 8 10 6 18 9 43 118 84 85 50 28 15 18 14 24 35 48 169 231 137 230 177 266 306
3 2 0 0 0 1 0 0 0 5 1 0 0 0 0 0 0 0 0 0 0 0 1 10 1 5 6 9 9 7 15 11 9 16 80 150 201 233 116 76 21 1 4 2 0 9 2 39 144 150 242 294 282 286
0 0 0 1 0 0 2 6 4 2 0 0 1 0 0 0 0 0 2 6 7 6 5 5 10 9 15 14 9 1 6 30 38 71 134 195 143 93 112 127 76 6 10 1 1 1 3 0 6 8 2 5 71 123
1 6 6 0 0 0 0 1 6 1 0 0 0 1 1 0 0 0 0 0 15 5 4 2 7 17 12 8 6 29 61 55 103 127 148 135 6 86 124 149 64 98 46 3 2 2 2 1 2 2 3 3 16 317
3 2 0 0 0 1 3 0 0 0 0 0 0 0 0 0 3 5 5 13 12 9 3 9 5 45 39 6 27 54 90 147 165 155 213 199 94 62 181 147 79 95 40 6 2 3 2 2 0 2 1 3 2 1
0 0 0 0 1 6 0 0 4 5 4 6 9 7 6 3 4 25 22 26 25 18 18 17 53 21 26 33 30 39 20 52 122 232 257 153 151 81 142 129 120 68 16 5 2 2 2 2 1 1 2 0 1 1
2 0 0 1 4 0 2 2 5 4 4 7 5 4 11 15 24 20 17 19 25 24 8 54 28 21 15 25 21 22 61 94 121 215 276 45 95 90 102 50 40 55 5 1 1 2 3 3 2 2 2 0 1 0
0 0 1 0 3 7 3 0 2 7 0 1 1 5 10 13 8 1 15 23 31 63 40 35 22 29 5 1 15 17 59 126 325 347 168 56 62 65 70 36 32 39 7 4 5 1 3 2 2 2 4 3 2 3
0 1 2 5 5 4 2 0 2 1 8 2 2 10 18 7 5 0 64 184 186 60 17 28 9 5 0 1 1 3 17 113 364 293 40 34 34 38 37 36 44 22 14 1 0 0 0 1 1 0 1 1 0 0
0 4 3 4 7 3 3 4 4 2 1 1 6 5 1 5 10 109 236 141 158 65 28 21 2 0 0 0 0 5 22 160 249 57 3 13 23 27 26 36 26 29 6 6 1 0 0 0 0 0 0 0 0 0
0 3 4 5 5 5 1 1 2 3 2 5 4 1 0 4 18 65 51 138 68 18 6 8 2 0 0 0 3 11 93 257 362 26 24 23 24 22 12 6 1 1 1 1 1 0 0 0 0 0 0 0 0 0
0 0 2 1 7 5 3 3 3 6 11 12 7 3 8 15 13 18 14 1 1 0 0 0 0 0 0 0 19 0 71 75 42 24 35 34 31 24 15 7 4 0 0 0 0 0 1 2 6 6 4 6 9 8
0 0 4 6 6 4 2 7 5 6 5 1 1 0 0 0 0 0 0 0 0 0 0 0 0 0 0 8 30 46 112 241 148 80 68 18 13 6 0 0 0 0 0 0 0 0 0 13 16 12 8 14 19 16
2 4 3 4 4 3 3 4 4 0 0 0 0 0 0 0 0 0 0 0 0 0 4 10 3 9 7 17 31 248 424 167 72 121 12 4 2 0 0 0 0 0 3 6 11 17 14 12 6 4 4 4 1 2
1 0 1 1 0 0 0 0 0 0 0 0 0 0 0 0 0 0 0 2 0 20 271 218 228 53 25 31 42 263 125 139 18 0 0 0 0 0 0 4 16 33 34 38 30 20 7 17 15 19 22 14 26 16
0 0 0 0 0 0 1 1 9 6 6 9 1 0 0 1 3 3 0 23 191 156 148 310 173 58 146 90 62 29 23 0 0 0 0 0 0 2 34 48 53 68 58 70 43 38 33 67 49 53 36 34 44 33
CIN
0 0 0 -11 -5 -5 0 0 0 0 0 0 0 0 0 0 0 0 0 0 0 0 0 0 0 0 0 0 0 0 0 0 0 0 0 -2 -3 -2 -5 -3 -2 -4 -4 -4 -5 -4 -7 -78 -60 -37 -29 -2 -37 -56
0 0 0 0 0 0 0 0 0 0 0 0 0 0 0 0 0 0 0 0 0 0 0 0 0 0 0 0 0 0 0 0 0 0 0 0 0 0 0 0 -2 -11 -5 -11 -13 -4 -1 -13 -42 -90 -65 -17 -16 -71
0 0 0 0 0 0 0 0 0 0 0 0 0 0 0 0 0 0 0 0 0 0 0 0 0 0 0 0 0 0 0 -3 -3 -3 0 0 0 0 0 0 0 0 0 -4 -42 -42 -30 -6 -15 -97 -65 -58 -88 -48
0 0 0 0 0 0 0 0 0 0 0 0 0 0 0 0 0 0 0 0 0 0 0 0 0 0 0 0 0 0 0 0 0 -2 -2 -3 -2 -1 0 -2 0 -4 -14 0 0 0 -44 -43 -17 -21 -78 -9 -104 -60
0 0 0 0 0 0 0 0 0 0 0 0 0 0 0 0 0 0 0 0 0 0 0 0 0 0 0 0 0 0 -1 -2 -2 -2 -2 -5 -2 -3 -3 -3 0 -1 -6 -2 -3 -22 -57 -58 -36 -22 -5 0 0 0
0 0 0 0 0 0 0 0 0 0 0 0 0 0 0 0 0 0 -1 0 -1 0 0 0 0 0 0 0 0 0 -5 -2 -8 -4 -11 -4 -1 -5 -1 0 0 -1 -8 -21 -2 0 0 0 0 -7 -18 -20 0 0
0 0 0 0 0 0 0 0 0 0 0 0 0 0 0 0 0 0 0 0 0 0 -1 0 0 0 0 0 -2 -3 -2 -3 -10 -8 -9 -12 -2 -1 -1 0 0 -2 -1 0 0 0 0 0 0 -1 0 -64 -10 0
0 0 0 0 0 0 0 0 0 0 0 0 0 0 0 0 0 0 0 0 0 -1 -1 0 0 -4 -6 -2 -5 -2 -4 -7 -2 -7 -7 -1 -1 -2 0 -6 -9 -15 0 0 0 0 0 -1 -1 0 0 -76 -63 -20
0 0 0 0 0 0 0 0 0 0 0 0 0 0 0 0 -1 -7 0 0 0 -1 -1 0 0 -1 -3 -2 -2 -2 -1 -1 -2 -2 -1 0 -1 0 -3 -3 0 0 -6 -2 0 0 -1 -1 -1 -1 -1 0 -18 -45
0 0 0 0 0 0 0 0 0 0 0 0 0 0 0 0 0 0 0 0 -1 0 0 0 0 -2 -3 -2 -2 -1 -1 -1 0 -3 -8 -3 -1 -36 -18 -12 -22 -2 -2 0 0 0 0 0 0 0 -1 0 -21 -52
0 0 0 0 0 0 0 0 0 0 0 0 0 -2 0 0 0 -1 0 0 0 0 -3 -1 -4 -1 -4 -3 -2 -2 -2 -1 0 -1 0 0 -20 -28 -15 -23 0 0 0 0 0 0 0 0 0 0 0 -1 0 -49
0 0 0 0 0 0 0 0 0 0 0 0 0 0 0 0 -1 -1 -2 -4 -1 -1 -10 -2 -2 -2 -3 -3 -1 -2 -1 -10 0 -6 -2 0 -2 -8 -16 0 0 0 0 0 0 0 0 -26 -17 -13 0 0 0 -12
0 0 0 0 0 0 0 0 0 0 0 0 0 -2 -1 -1 0 0 -1 -6 -3 -1 -10 -4 -2 -4 -2 -2 -3 0 -1 -2 -1 -5 0 -19 -15 -19 -3 0 0 0 0 0 0 -38 -1 0 -3 -13 -7 0 -7 -25
0 0 0 0 0 0 0 0 0 0 0 -1 0 0 0 0 0 0 -1 -4 -3 -4 0 -3 -2 -1 -2 -2 -2 0 -1 -1 -4 0 0 0 0 0 0 0 -48 0 -1 0 -7 -3 -3 0 0 0 -1 -53 -53 -37
0 0 0 0 0 0 0 0 0 0 0 -1 -1 0 0 0 0 -3 -3 0 -1 -3 -2 -3 -4 -4 -3 -1 -4 -2 0 -4 0 -1 -2 0 0 0 -17 -7 0 -11 -5 -11 -8 0 -3 -13 -5 -3 -29 -43 -36 -22
0 0 0 0 0 0 0 0 0 0 -1 0 0 0 0 0 -1 -2 -3 -2 -4 -4 -4 -2 -2 -3 -4 -3 -2 0 0 -1 -1 0 0 0 -11 -21 -10 -7 0 0 0 -2 0 -1 -2 -20 -26 -26 -29 -15 -10 -27
0 0 0 0 0 0 0 0 0 0 -2 0 0 0 0 0 0 0 0 0 0 -2 -3 -5 -4 -1 -3 -4 0 -1 -1 -3 -1 0 0 -4 -10 -15 -12 -19 -2 0 -1 -3 -12 -6 -11 -19 -17 -10 -7 -4 -1 -11
0 0 0 0 0 0 0 0 -2 0 0 0 0 0 0 0 0 0 0 0 0 -4 -2 -3 -1 -3 -1 -1 -1 -5 -1 -2 0 -2 -14 -6 -13 -25 -23 -20 0 0 -4 -7 -35 -38 -54 -28 -12 -27 -9 -3 -14 -14
0 0 0 0 0 -1 0 0 0 0 -1 0 0 0 0 0 0 0 0 0 0 -1 0 -3 -3 -3 -6 -3 -4 -4 -1 -3 -2 -19 -16 -5 -6 -4 -5 -14 -2 -19 0 -5 -2 -26 0 -22 -15 -45 -55 -74 -24 -11
0 0 0 -2 0 0 0 -1 -1 0 0 0 -2 -2 0 0 0 -1 -2 -3 -3 -2 -2 -2 -2 -2 -3 -3 -3 -2 -6 -4 -10 -11 -6 -5 -12 -15 -3 -4 -2 -15 -8 0 0 0 -31 0 -12 -19 0 -153 -90 -52
0 0 0 0 0 0 0 0 -2 -1 0 -2 0 -3 -2 -1 -1 0 0 -5 -2 -4 -3 -5 -3 -3 -14 -15 -24 -1 -1 -19 -12 -7 -7 -6 -32 -36 -7 -6 -20 -3 -1 -48 0 0 0 0 0 0 0 0 -107 -5
0 -2 0 0 0 -1 0 0 0 0 0 0 0 0 0 0 -2 -2 -6 -2 -15 -21 -22 -11 -4 -2 -4 -28 -25 -24 -21 -9 -11 -19 -17 -11 -18 -12 -1 -3 -14 -2 -7 -2 0 0 0 0 0 0 0 0 0 0
0 0 0 0 0 0 0 0 -1 -1 0 -1 -1 -1 -1 -2 -2 -4 -3 -3 -3 -5 -14 -12 -3 -21 -23 -28 -29 -8 -8 -9 -6 -12 -9 -1 -2 -9 -6 -1 -3 -3 -9 0 0 0 0 0 0 0 -23 0 0 0
-12 0 0 0 0 0 -2 -1 -2 0 -1 -1 -1 -2 -3 -2 -2 -1 -4 -3 -4 -19 -26 -5 -2 -1 -1 -4 -2 -3 -3 -5 -20 -8 -6 -9 -3 -17 -5 -15 -20 -2 -13 0 0 0 0 0 0 0 0 0 0 0
0 0 0 0 -1 0 -1 -1 -1 0 -2 -4 -2 -4 0 -3 -3 -3 -4 -9 -3 -14 -15 -14 -14 -1 -1 -1 -1 0 -4 -19 -3 -5 -1 -7 -3 -16 -3 -9 -11 -3 -10 -1 0 0 0 0 0 0 0 0 0 0
0 0 0 0 -1 -1 -1 -1 -2 -3 -1 -7 -3 -1 -4 -4 -4 -1 -12 -2 -2 -24 -19 -8 -7 0 0 -1 -2 -2 -2 -5 -11 -4 -3 -5 -16 -7 -11 -2 -3 -2 -6 -12 0 0 0 0 0 0 0 0 0 0
0 0 -1 -1 -1 -1 0 -1 -2 -1 -4 -1 -2 -4 -2 -7 -2 -7 -2 -2 -9 -9 -4 -2 -1 0 0 0 0 -2 -1 -8 -9 -23 -30 -6 -7 -5 -9 -10 -9 -1 -7 -5 -12 0 0 0 0 0 0 0 0 0
-1 0 -1 -2 -1 -1 -3 -1 -2 -1 -3 -2 -2 -8 -1 -9 -2 -20 -37 -6 -11 -15 -14 -6 -1 0 0 0 -2 -2 -4 -4 -19 -38 -33 -10 -1 -6 -6 -12 -21 -2 0 0 -3 0 0 0 0 0 0 0 0 0
0 0 -1 -1 0 -1 -1 -1 -2 -2 -2 -2 -2 -4 -2 -3 -3 -2 -2 -3 -2 0 0 0 0 0 0 -1 -2 0 -6 -21 -29 -21 -11 -13 -4 -3 -3 -4 -1 0 0 0 0 0 -3 -5 -5 -3 -2 -5 -6 -3
0 -1 -1 -1 -1 -2 -2 -2 -2 -3 -2 -3 -2 0 0 0 0 0 0 0 0 0 0 0 0 0 -3 -19 -1 -5 -7 -15 -18 -17 -11 -3 -2 -3 0 0 0 0 0 0 0 0 0 -6 -3 -2 -3 -3 -3 -3
-2 -2 -1 0 -2 -2 -4 -3 -2 -1 -1 0 0 0 0 0 0 0 0 0 0 0 0 -11 -1 -11 -23 -10 -2 -3 -3 -10 -27 -13 -6 -2 -4 0 0 0 0 0 -4 -11 -6 -3 -5 -5 -3 -2 -9 -37 -25 -4
-1 -1 -3 -1 0 0 0 0 0 0 0 0 0 0 0 0 0 0 0 -1 0 -15 -9 -13 -9 -18 -19 -15 -24 -9 -6 -10 -5 0 0 -1 0 0 0 -5 -5 -3 -2 -2 -5 -17 -23 -18 -3 -8 -4 -21 -9 -3
0 0 0 -2 0 0 0 -1 -2 -1 -1 -1 -2 0 0 -5 -4 -1 0 -47 -5 -13 -18 -13 -15 -16 -27 -34 -30 -35 -59 0 0 0 0 0 0 -13 -2 -4 -2 -2 -8 -3 -24 -19 -9 -1 -12 -21 -19 -9 -3 -1
Wind_Speed
24 25 26 26 24 24 25 25 27 28 30 31 31 31 32 32 32 30 20 23 25 23 24 23 23 24 23 20 21 27 29 15 22 22 24 26 28 28 32 31 31 30 32 34 34 37 42 28 29 29 30 31 34 31
21 23 24 24 23 22 23 24 26 27 29 30 31 32 32 32 32 30 22 27 24 22 18 24 18 15 14 15 19 19 20 23 20 23 25 28 33 34 34 32 32 33 30 34 34 36 33 30 31 33 32 33 29 31
19 22 23 24 23 22 22 23 24 26 27 29 30 31 31 31 29 27 23 24 29 24 27 13 15 10 14 14 12 16 16 21 20 24 25 25 24 27 24 24 36 38 36 32 35 38 39 35 30 31 33 31 31 24
19 20 21 23 22 21 21 21 22 24 25 27 29 31 30 29 28 26 23 23 25 24 22 21 16 18 13 11 12 13 15 19 19 22 26 23 7 14 23 33 31 36 38 40 41 41 42 37 32 31 30 33 36 35
18 19 20 22 20 19 19 20 21 22 24 26 28 30 29 28 28 25 17 18 20 24 23 24 23 16 9 9 12 12 13 17 17 19 12 5 13 25 27 21 20 25 31 37 39 38 37 38 38 35 38 38 37 36
17 17 19 20 19 17 18 18 20 21 23 25 27 28 28 27 28 23 18 18 23 25 23 23 21 15 11 12 12 11 10 13 12 12 12 12 3 5 12 12 16 31 33 36 39 43 44 43 42 41 35 33 29 29
15 16 18 19 18 17 17 18 19 20 22 24 26 27 27 25 22 19 20 20 24 23 19 21 19 10 11 13 10 13 17 13 10 10 3 11 5 4 8 15 13 21 31 43 40 42 47 45 47 43 43 42 39 36
15 16 17 17 16 15 15 16 18 20 22 24 26 27 25 22 17 17 18 11 19 19 17 18 17 13 14 21 23 24 30 18 15 9 18 7 11 11 16 17 26 30 35 43 37 42 35 51 50 50 47 43 43 40
16 16 17 17 15 15 16 17 18 20 22 25 28 27 19 17 17 18 17 16 15 16 17 14 16 19 16 24 27 29 24 28 21 5 8 16 16 16 20 28 35 41 27 19 45 31 20 20 50 48 45 47 46 42
16 16 16 16 15 13 15 16 18 21 23 26 22 17 17 18 18 18 18 17 15 13 11 13 12 14 26 29 26 26 20 22 23 20 16 14 13 18 28 28 29 32 20 20 18 19 19 18 23 42 47 47 47 45
16 15 15 15 14 13 14 15 18 24 20 16 17 20 19 17 18 16 18 16 14 15 12 13 12 21 18 23 28 20 22 23 21 19 20 21 21 21 28 33 30 17 15 15 14 16 16 16 22 32 44 45 41 43
16 15 14 14 12 11 12 13 16 16 20 20 20 19 18 16 16 17 16 15 12 15 12 15 17 15 18 15 19 21 21 20 20 19 19 19 22 28 26 21 22 34 19 18 19 16 12 13 12 17 32 41 40 39
14 13 12 11 9 9 10 12 14 18 22 15 16 16 15 14 15 15 15 15 15 15 15 14 20 21 17 18 21 20 21 22 26 17 18 17 22 16 22 23 22 22 18 17 21 18 13 10 16 14 28 37 40 36
13 12 10 8 6 6 9 10 12 15 15 15 15 17 14 13 13 10 11 22 18 22 22 24 18 16 18 22 20 21 21 23 21 19 17 19 15 20 22 25 22 18 13 17 18 23 6 9 7 13 22 26 31 35
10 9 7 5 5 6 8 9 12 13 16 15 14 15 13 11 21 21 21 23 23 20 22 26 25 25 24 22 21 21 21 20 19 20 23 16 20 19 21 22 25 14 8 12 17 17 7 13 15 18 22 25 24 25
8 7 9 5 5 6 7 9 11 14 15 14 13 15 17 19 20 17 15 16 18 20 23 19 20 20 22 21 21 21 22 22 27 33 13 14 29 19 20 23 23 13 13 1 12 18 8 12 13 15 17 23 28 31
2 10 3 2 1 3 5 10 12 14 15 15 17 13 20 29 26 26 25 25 25 24 23 19 19 21 22 22 22 21 23 28 30 18 19 15 14 19 18 28 17 9 8 5 22 22 19 16 13 14 16 18 22 28
10 6 1 2 0 5 9 13 15 16 16 17 22 26 26 24 23 25 25 24 22 22 21 17 17 26 24 24 24 26 28 28 21 20 21 17 14 18 29 29 13 12 22 21 16 20 16 15 15 14 14 18 21 26
6 2 2 5 2 10 11 14 17 19 19 23 27 27 26 26 26 26 26 25 23 24 23 14 18 23 24 25 27 27 26 25 24 23 17 20 18 9 11 32 25 22 32 26 19 22 7 12 16 16 13 16 16 19
2 2 6 5 12 13 14 14 15 21 22 22 25 26 26 27 26 25 19 10 9 10 9 18 27 26 25 25 26 28 25 25 23 19 20 25 27 11 7 30 32 33 35 27 30 18 18 20 19 16 16 16 17 20
6 5 6 12 16 19 20 21 21 20 23 24 25 24 25 25 27 27 11 10 11 20 17 6 14 26 25 27 26 25 24 23 18 14 15 22 10 6 6 33 33 29 27 26 37 34 26 15 19 14 14 14 14 16
9 5 12 17 19 21 23 19 17 21 23 25 25 25 25 25 25 11 20 5 14 8 6 5 25 24 23 23 23 23 22 18 14 16 14 5 13 20 23 32 33 34 34 33 32 31 30 26 8 12 12 9 10 8
8 15 18 21 23 18 22 22 20 22 21 20 20 20 21 16 20 15 18 24 16 12 8 8 19 21 23 23 22 21 19 17 19 12 9 21 20 28 29 31 30 30 31 33 32 31 29 9 12 33 25 17 6 18
15 20 21 22 22 21 15 14 19 21 22 24 22 21 22 19 17 15 21 24 11 10 9 8 19 21 20 21 20 20 19 21 19 21 13 17 23 25 26 30 30 28 29 29 30 33 32 25 21 28 34 32 20 18
18 20 18 22 19 19 14 16 23 21 20 20 20 20 17 18 17 19 25 15 13 9 7 10 22 22 21 21 20 19 19 20 20 17 15 12 24 25 26 28 27 24 28 28 28 29 29 29 29 26 25 31 34 35
20 19 18 16 16 13 10 15 18 20 21 20 19 14 17 18 17 11 14 14 14 10 8 13 19 20 20 20 19 18 18 17 15 14 14 17 24 25 24 26 28 29 29 31 32 32 32 30 30 30 29 30 31 31
21 19 18 19 15 14 18 21 21 19 17 18 19 14 14 12 10 14 15 17 14 12 10 17 20 21 21 21 20 18 18 16 15 16 14 22 23 23 23 24 26 28 30 30 31 34 35 35 35 34 33 32 32 31
22 19 20 17 17 21 25 21 19 18 18 18 16 11 13 11 17 17 18 17 15 12 16 25 24 24 24 23 21 18 14 15 15 14 12 21 23 25 26 26 26 27 27 28 29 29 30 31 31 31 31 31 31 30
22 23 24 19 19 21 23 24 25 20 20 21 20 15 3 24 23 23 21 22 23 25 26 26 25 24 24 22 19 19 16 12 12 10 15 19 21 22 23 24 25 26 27 28 27 27 27 28 27 28 28 27 27 26
26 27 24 25 27 26 26 23 23 24 25 26 26 28 28 28 29 29 29 29 28 27 27 27 26 26 23 22 22 13 13 13 17 15 15 16 18 19 20 22 23 24 25 25 26 25 25 26 26 26 26 26 25 25
25 24 27 28 27 25 25 24 25 26 21 19 28 28 29 30 30 29 30 28 27 27 26 27 26 23 24 24 11 7 9 12 15 14 15 15 16 18 20 21 21 20 20 21 22 23 23 24 25 24 23 24 25 24
24 25 27 27 25 25 24 25 23 12 13 16 20 19 25 29 28 28 27 26 26 26 23 24 23 25 25 13 8 7 12 13 14 14 13 14 16 18 19 19 20 20 21 20 21 22 21 21 21 20 20 21 21 20
25 25 25 25 25 24 15 9 13 18 18 21 24 26 26 26 25 24 20 22 21 22 22 23 23 24 6 4 5 6 5 10 14 13 12 12 13 15 17 18 19 19 19 18 19 20 18 19 22 20 19 17 19 21
Wind_Direction
335 333 331 332 339 340 340 341 341 340 338 337 334 334 335 336 335 345 2 5 355 346 339 346 348 340 338 338 334 333 336 348 334 329 325 322 317 317 313 309 305 301 298 291 289 287 282 316 299 283 289 298 282 281
337 336 335 338 342 342 342 344 342 340 337 335 335 335 337 339 341 347 358 351 355 348 339 339 338 341 340 338 337 340 333 334 338 332 327 324 316 313 312 309 303 302 303 299 295 289 300 309 298 292 290 290 292 284
334 331 331 331 336 339 341 342 342 342 339 338 339 339 341 345 351 357 359 356 348 349 344 350 360 15 1 356 352 337 342 343 339 337 329 326 323 323 320 316 291 290 293 304 297 288 289 300 300 299 286 291 294 302
326 329 331 331 334 337 339 341 341 341 341 341 341 342 346 348 352 354 354 354 354 352 353 2 14 358 8 6 359 353 345 339 339 336 329 330 262 345 246 261 256 281 286 271 264 282 286 288 300 297 292 289 287 279
321 323 325 327 332 337 338 339 340 340 340 340 342 344 347 348 349 351 357 3 4 358 348 342 339 351 355 5 360 357 353 346 344 338 344 320 243 254 252 254 241 294 259 287 273 291 291 286 288 299 292 283 282 275
314 319 321 324 329 333 335 338 338 339 340 341 343 346 347 348 346 357 3 9 359 358 353 351 350 353 8 4 359 359 356 352 351 348 347 350 265 348 351 333 325 312 311 310 301 289 284 280 284 286 295 288 286 276
309 314 317 320 324 327 331 334 335 337 339 341 343 344 345 347 351 353 350 353 351 354 357 350 354 30 23 8 8 360 351 354 354 244 253 238 264 314 300 261 306 326 318 302 305 304 291 286 278 282 283 281 281 276
303 307 312 316 321 325 329 332 334 335 337 338 339 341 345 347 352 355 360 11 357 355 360 354 356 1 9 348 342 342 326 344 345 344 347 14 5 7 351 347 343 332 325 303 314 305 281 282 280 274 275 276 271 272
299 304 307 311 315 320 324 327 329 331 333 334 335 337 354 2 0 356 4 360 0 355 355 360 354 354 7 344 337 329 332 272 318 48 15 3 3 355 350 343 334 324 330 310 279 315 287 280 270 270 272 267 262 266
296 300 303 308 313 317 322 324 326 329 331 332 344 353 351 358 3 1 359 358 3 14 11 357 359 348 338 335 339 334 330 308 305 337 4 6 358 1 354 345 336 328 326 324 294 274 265 268 248 254 264 260 259 258
296 296 299 305 307 311 319 323 326 326 333 348 347 343 354 359 351 354 351 356 6 3 14 8 3 345 355 346 326 336 301 299 305 341 353 359 358 355 356 348 345 332 297 310 291 276 278 272 248 240 256 256 256 252
296 297 298 303 305 309 318 324 328 335 337 337 336 337 342 348 351 349 352 359 3 359 10 5 1 5 357 9 347 306 293 300 313 349 3 7 5 357 352 329 314 286 282 278 268 271 295 274 259 233 264 245 249 248
293 296 296 300 300 304 317 324 327 327 327 343 345 344 347 349 341 345 350 356 359 357 4 9 349 350 2 355 307 286 279 277 292 359 8 17 3 331 344 329 319 301 281 273 274 289 281 257 244 206 201 207 233 241
290 293 298 296 291 301 317 323 327 335 341 339 339 335 337 342 342 350 350 337 349 330 337 332 0 4 355 299 284 270 286 300 317 355 12 6 326 327 330 316 329 320 286 274 277 287 54 60 117 141 167 167 176 227
288 291 289 289 289 306 318 323 324 330 332 333 336 331 331 332 315 320 323 319 319 331 330 323 332 326 301 273 272 278 291 311 345 358 2 300 306 334 336 333 320 0 327 279 280 282 123 79 78 115 136 153 168 255
291 304 296 279 286 297 309 316 321 324 326 328 325 321 322 318 319 328 333 331 331 326 321 346 350 337 284 272 265 269 286 307 309 316 289 303 308 321 357 7 13 5 35 347 292 308 99 96 102 122 148 178 207 223
275 309 310 261 280 317 321 313 316 316 320 322 318 319 304 286 298 297 296 296 302 303 314 344 345 297 283 264 266 296 291 288 292 272 285 299 325 323 11 23 341 2 47 40 318 322 310 280 199 148 158 167 180 196
299 302 48 119 80 319 307 307 308 313 314 308 300 289 284 295 298 290 293 299 307 301 310 341 343 271 264 261 267 282 285 288 270 275 285 293 310 317 347 27 358 32 45 41 302 305 289 284 286 289 174 149 162 176
288 298 141 142 291 310 311 304 299 303 303 297 277 276 282 283 282 286 287 289 293 291 296 346 327 276 269 268 270 275 282 281 279 283 282 292 300 329 23 27 41 42 35 46 58 330 253 283 312 297 247 272 269 247
356 98 130 279 287 300 301 304 301 292 293 283 276 270 270 267 273 278 284 339 348 342 358 325 265 274 280 272 277 278 267 277 279 278 288 306 308 290 41 32 29 30 26 45 46 63 329 334 325 292 280 255 217 232
300 274 281 276 276 270 263 256 271 291 285 280 265 263 268 276 262 246 174 157 332 301 320 19 212 266 276 276 273 268 269 272 265 265 276 290 13 321 59 7 23 39 43 52 23 45 66 326 325 289 283 271 203 147
277 285 270 252 257 248 252 282 302 286 269 249 251 253 252 251 246 203 212 10 323 355 24 144 266 274 278 278 271 266 259 253 251 273 277 280 45 43 34 6 7 18 25 32 43 46 55 67 328 334 331 311 312 298
263 256 244 238 238 264 258 262 279 263 265 261 267 271 268 183 207 311 302 253 314 346 23 30 294 281 264 264 257 258 252 247 278 255 263 309 317 20 22 10 3 9 31 29 38 48 51 94 40 42 14 4 358 21
246 236 240 240 241 252 290 301 266 252 247 236 258 279 283 301 309 317 283 264 337 10 41 29 281 264 271 265 267 278 283 297 282 306 276 303 34 39 36 20 9 7 25 19 24 31 23 8 6 28 59 46 26 22
237 236 247 239 256 263 300 284 236 243 257 266 276 281 321 313 317 297 259 323 332 9 39 342 266 260 267 266 277 282 304 305 304 288 287 281 21 359 19 39 59 67 40 26 22 21 24 27 30 31 34 44 54 51
235 245 249 263 274 293 308 280 261 252 255 276 281 336 331 314 317 325 332 321 331 15 45 306 269 265 269 262 262 265 275 288 268 272 292 317 23 26 42 44 48 53 67 63 55 47 42 41 47 47 45 43 46 48
242 250 261 255 272 280 265 247 250 270 291 290 290 333 9 8 31 331 314 318 335 352 1 288 272 273 264 255 255 259 264 257 276 305 291 353 19 33 35 54 65 67 65 71 74 67 68 69 65 60 57 53 52 51
238 253 248 259 266 248 229 249 266 284 295 298 322 354 0 7 327 311 308 320 331 345 308 253 262 269 253 249 253 254 312 309 317 274 265 31 46 56 58 61 62 56 63 65 62 64 64 66 67 65 62 60 58 57
240 236 235 257 256 247 244 241 242 276 288 292 308 325 330 287 282 285 299 298 291 279 265 258 261 256 243 241 240 202 195 255 342 311 30 80 68 53 61 68 70 61 61 56 53 59 57 53 55 59 60 60 63 62
233 230 239 231 216 231 234 246 257 261 271 285 295 281 260 252 256 261 267 263 259 257 255 250 255 244 244 236 212 98 74 38 127 93 64 53 55 55 58 62 63 64 66 65 63 64 61 54 45 41 44 42 43 51
232 239 229 220 221 225 226 225 239 247 239 225 254 246 248 259 265 283 263 248 233 240 246 242 231 239 230 221 263 52 38 43 99 91 60 55 61 63 64 69 73 79 77 70 64 58 43 39 42 45 42 32 26 32
240 240 231 223 231 238 257 260 240 209 212 216 222 219 234 248 243 252 252 245 239 229 242 230 226 218 218 256 279 60 81 69 69 67 57 53 60 75 82 76 77 56 41 50 46 44 48 42 47 45 48 44 41 44
238 241 240 243 250 245 235 19 341 231 226 244 270 270 253 237 232 236 256 238 240 234 226 217 213 210 283 339 324 308 322 27 61 60 46 28 21 12 53 56 46 44 38 40 45 41 54 48 44 44 43 49 41 32